Wind_Speed
16 15 15 15 14 13 13 12 11 11 10 11 11 11 11 11 10 10 10 10 10 11 10 9 7 6 6 5 5 5 5 6 6 7 7 5 5 5 6 6 4 4 3 3 5 4 4 3 3 3 2 3 4 4 5 5 3 3 3 4 3 4 4 5 7 7 4 3 7 10 11 7 5 6 7 4 4 7 8 8 8 10 11 10 12 11 15 18
16 16 15 15 14 14 13 12 12 11 11 11 11 11 11 11 10 10 10 10 10 11 10 9 8 7 6 5 5 5 5 6 7 7 6 6 6 6 5 5 5 4 3 4 5 4 3 2 2 2 3 4 4 4 3 4 4 3 3 4 3 5 4 4 7 10 4 3 9 10 10 9 6 9 10 4 3 6 5 6 8 9 11 12 12 13 16 17
16 16 15 15 14 14 13 13 12 12 12 12 11 11 11 11 10 10 10 10 11 11 10 9 8 7 6 5 5 4 4 6 5 4 4 5 5 5 6 7 7 5 4 3 4 4 4 2 2 2 3 4 4 4 4 4 3 2 4 3 4 6 3 4 6 11 7 4 10 9 8 8 7 10 10 6 4 5 6 8 10 11 14 14 13 15 17 17
16 16 15 15 15 14 14 13 12 12 12 12 11 11 11 11 11 11 11 11 11 10 10 9 8 7 6 5 5 4 4 4 2 2 2 3 5 9 10 10 8 5 4 2 3 3 3 2 2 2 3 3 3 3 3 5 2 1 4 3 5 6 2 3 6 9 9 7 12 9 6 5 7 10 9 7 5 4 12 16 15 13 14 15 16 16 18 18
15 15 15 15 15 14 13 13 12 12 12 11 11 11 11 11 11 11 12 12 11 10 10 9 7 7 6 6 5 3 1 2 2 3 2 5 9 12 12 11 8 5 3 1 2 3 3 3 3 2 2 2 3 3 2 4 4 3 1 2 6 7 2 4 6 6 9 10 10 9 6 5 8 9 9 10 7 6 11 15 16 15 13 13 15 16 17 17
14 15 15 15 14 14 13 13 12 12 11 11 11 11 11 11 11 12 12 12 11 10 10 9 8 7 6 6 5 4 1 1 3 4 4 8 11 13 12 9 5 4 2 1 1 2 3 2 2 2 2 2 2 2 2 3 2 2 1 1 6 6 2 5 9 8 10 10 10 9 7 7 8 7 9 14 14 12 11 11 13 16 15 13 15 16 16 16
14 14 14 14 14 14 13 13 12 12 12 12 11 11 11 11 11 12 12 11 11 11 10 9 8 7 6 6 5 4 4 3 5 5 5 9 11 12 9 5 1 3 1 1 1 3 3 2 3 3 4 3 1 2 3 2 2 3 1 1 4 5 4 7 9 9 10 9 9 8 6 8 10 7 7 14 19 17 15 14 12 14 15 15 16 16 15 15
14 14 13 13 13 13 13 12 12 12 13 12 12 12 12 12 12 12 12 11 12 11 10 9 8 7 7 6 5 5 6 5 6 7 7 9 10 9 6 3 3 3 0 0 2 2 2 2 3 4 3 2 2 2 2 2 3 4 2 3 3 2 3 7 9 9 8 7 7 8 7 9 11 7 6 13 18 17 17 15 12 13 15 17 17 16 15 15
13 12 12 12 12 12 12 12 12 13 13 13 13 13 12 12 12 12 12 12 12 11 10 9 8 8 7 7 5 4 6 6 8 9 8 8 8 6 5 5 5 3 2 2 2 3 2 3 3 3 2 2 3 2 2 1 1 1 4 3 2 1 3 7 9 9 8 7 6 7 7 7 9 6 8 15 17 16 16 14 13 13 15 17 17 17 16 15
14 12 12 11 11 11 12 12 12 12 12 12 13 12 12 12 13 12 13 12 12 11 10 9 9 8 8 8 5 3 5 8 10 11 10 9 7 6 6 5 4 3 2 2 2 3 2 3 3 3 3 3 3 2 3 2 1 2 3 1 1 2 3 6 9 10 9 9 8 8 6 5 6 4 7 13 15 17 16 15 15 15 16 17 17 17 16 16
15 14 13 12 12 12 12 12 12 12 12 12 12 12 12 12 13 13 13 13 12 11 10 10 9 9 9 8 8 5 5 9 11 11 11 9 8 7 5 4 2 2 2 2 2 3 2 3 2 2 1 1 2 2 2 3 3 2 2 2 4 4 6 7 9 12 9 6 9 9 5 4 3 4 10 12 13 17 18 17 18 17 18 18 18 18 17 18
15 15 15 14 13 13 12 12 12 12 12 12 12 12 12 12 13 13 13 12 12 11 10 10 9 9 9 10 14 11 6 9 11 12 12 10 9 8 6 4 3 3 3 3 3 3 3 3 2 1 1 3 2 2 2 3 3 3 4 2 6 8 7 7 8 10 9 4 6 5 3 5 4 10 14 11 13 17 18 19 20 20 20 19 19 19 19 18
16 16 16 16 15 15 14 14 13 13 12 12 12 12 12 13 13 13 13 12 12 11 10 10 9 9 9 9 13 13 10 11 12 13 13 11 10 10 7 5 5 4 4 4 4 3 3 4 2 1 3 4 2 2 3 3 2 1 3 2 4 7 6 5 2 5 8 4 5 7 3 7 8 15 14 10 14 18 19 21 21 22 22 21 21 21 20 20
17 17 17 17 16 17 16 16 15 15 14 14 13 13 13 13 13 13 13 12 12 11 10 10 9 9 10 10 11 12 13 13 14 15 14 13 12 11 9 6 6 6 6 6 6 5 5 4 3 3 3 3 3 5 3 4 3 1 1 2 2 2 5 5 0 6 6 4 8 9 2 8 8 11 10 11 16 18 20 23 23 24 24 24 24 23 22 21
19 19 18 18 17 17 17 17 17 16 15 15 14 14 13 13 13 13 13 12 12 11 11 10 9 9 8 11 12 11 14 16 16 16 15 15 13 10 9 7 7 8 8 7 7 6 5 4 4 3 3 4 5 4 3 4 3 3 1 3 3 1 5 9 2 9 6 2 8 8 2 8 10 9 8 13 17 20 22 23 24 25 25 26 25 25 24 22
21 20 20 19 18 18 18 17 17 16 15 15 15 14 14 13 13 13 13 12 11 11 10 9 10 9 5 8 11 11 15 18 17 17 17 16 14 11 9 8 8 9 9 8 7 7 6 5 3 3 4 4 4 4 4 3 4 4 0 3 3 2 3 7 3 7 4 3 5 5 2 5 6 5 5 13 19 21 21 22 24 26 27 27 27 26 25 24
23 23 22 21 20 19 19 18 17 16 15 15 15 14 14 13 14 14 13 11 11 10 10 8 8 8 7 9 10 13 17 19 18 18 19 17 15 12 9 8 9 10 9 8 8 7 6 5 5 3 2 3 3 5 3 2 4 3 1 2 4 3 2 3 4 4 3 3 4 5 4 8 7 3 2 12 18 21 22 24 26 27 28 28 28 28 27 27
24 24 24 23 22 21 20 19 18 16 15 15 14 13 13 13 13 12 12 12 10 7 7 8 5 2 9 15 14 14 15 16 17 17 18 17 15 12 10 8 8 9 8 6 6 6 5 3 4 1 3 3 2 5 3 5 4 3 3 2 3 3 3 4 5 2 4 2 4 5 5 12 13 9 8 11 16 22 25 27 26 27 29 29 30 30 30 31
21 23 24 24 24 23 22 21 19 18 17 15 13 12 12 11 10 10 11 13 13 8 4 12 15 6 3 12 18 16 12 13 17 17 17 17 15 13 10 8 8 9 7 4 3 5 5 3 4 2 1 3 5 7 8 8 6 6 6 5 4 4 4 5 6 5 5 3 4 8 8 12 13 12 13 14 18 23 25 25 25 27 28 30 31 33 33 34
19 21 22 24 24 24 23 22 21 20 18 16 13 11 9 8 5 5 12 18 21 19 10 12 21 16 3 2 12 16 11 12 16 18 17 16 16 13 11 9 8 7 5 4 3 3 4 3 2 5 7 9 10 10 7 5 6 5 5 4 4 4 5 5 5 6 3 4 6 9 9 12 13 11 13 15 16 20 23 24 27 29 29 31 34 36 37 36
16 18 20 22 22 23 23 23 21 21 20 17 14 12 10 11 6 3 11 18 24 28 23 14 15 20 13 4 7 13 12 12 16 18 17 17 16 12 11 9 7 3 2 4 4 2 4 4 7 10 10 9 9 9 5 5 4 3 4 3 3 3 5 7 4 4 2 4 6 7 8 12 12 11 14 12 10 17 26 27 30 33 32 34 36 38 38 36
15 16 17 19 21 22 22 21 20 22 22 18 17 16 13 14 13 8 7 9 16 24 28 25 19 19 19 12 9 13 12 10 13 19 19 19 18 13 11 9 5 3 2 4 5 2 2 4 11 12 5 4 4 6 6 4 3 2 3 2 3 3 4 6 4 4 1 4 5 6 7 10 11 11 14 14 15 22 32 32 35 36 35 37 39 38 38 36
15 14 15 17 19 21 21 20 19 21 23 20 18 19 16 13 14 12 6 5 9 16 24 29 29 26 24 18 14 16 16 10 12 20 22 22 21 15 13 10 4 4 4 4 6 4 4 6 11 10 7 6 3 3 5 2 1 3 3 3 4 3 2 4 5 4 1 2 3 5 8 8 8 9 11 21 26 25 30 35 37 37 36 38 39 38 39 39
15 14 13 14 16 19 20 18 17 20 22 20 19 19 17 13 12 12 8 5 7 11 18 23 28 32 31 24 19 20 20 14 13 20 25 26 21 14 12 10 5 4 5 9 9 7 7 5 4 7 9 8 5 4 6 4 3 5 5 6 5 5 6 6 4 5 3 3 3 4 8 8 7 10 10 15 17 17 27 32 32 37 37 35 34 35 39 40
16 14 14 13 14 16 16 16 18 20 21 21 20 19 17 13 10 7 5 3 5 7 11 16 20 28 32 28 23 20 18 15 16 19 25 30 25 13 8 10 7 4 8 8 7 7 9 5 3 6 6 7 7 4 6 7 4 5 5 9 10 8 8 5 3 5 4 5 4 4 5 7 4 8 9 7 3 10 21 22 26 35 34 31 33 35 37 37
17 15 14 14 14 13 14 16 19 21 22 22 19 18 17 13 8 6 3 2 5 4 4 10 13 15 22 26 25 18 8 12 19 21 24 29 27 15 6 7 5 4 7 6 3 3 5 5 5 7 6 7 7 5 6 8 5 4 5 9 11 8 5 5 1 1 1 4 3 3 0 7 6 5 8 7 5 10 13 12 20 31 30 29 34 36 36 37
19 17 16 16 16 15 17 18 18 20 20 18 16 19 18 13 11 8 4 4 5 5 7 9 10 10 14 21 30 20 3 7 15 20 26 28 27 17 7 5 4 3 6 6 2 3 4 5 4 6 6 6 6 5 6 8 7 4 4 5 8 7 7 6 4 4 3 3 4 3 3 5 10 5 5 8 8 10 13 10 15 23 27 30 32 34 35 37
22 19 18 19 18 17 18 19 19 19 17 12 13 21 19 16 14 9 5 1 3 6 6 7 10 12 12 20 34 21 6 12 11 15 28 30 26 15 7 8 7 5 8 7 4 3 4 7 7 7 5 4 6 5 7 10 6 5 3 5 6 6 5 4 5 3 1 3 4 1 4 3 10 5 1 3 6 9 14 12 12 18 23 25 28 31 33 35
26 22 21 20 18 17 17 21 21 16 12 7 12 23 21 18 13 6 4 2 2 3 3 7 9 10 14 20 25 14 9 9 3 13 26 26 25 12 2 8 8 6 7 6 5 3 1 5 8 9 6 6 5 2 7 11 5 4 6 7 6 5 4 5 4 3 3 3 5 6 6 3 8 3 3 1 4 9 11 10 11 15 16 17 22 26 29 32
29 27 23 20 21 22 19 23 23 16 13 10 17 25 23 17 9 4 2 3 2 1 3 8 7 10 17 16 9 4 5 2 4 16 17 13 18 10 3 7 6 5 2 4 4 3 2 0 3 5 4 5 5 3 2 6 6 8 7 6 7 6 5 4 2 4 2 5 6 9 11 7 6 3 4 3 4 7 8 7 9 12 12 13 15 19 24 29
30 31 28 24 27 27 24 26 24 20 20 17 21 28 21 9 3 4 6 1 1 2 4 4 3 8 16 13 6 4 3 1 7 15 9 4 9 6 4 5 3 4 1 5 4 4 4 0 1 3 4 5 7 5 3 3 6 7 5 4 4 4 4 4 4 4 1 6 4 6 9 9 8 6 3 5 6 5 7 6 7 10 11 11 11 14 18 24
30 35 33 30 31 29 28 28 21 21 23 19 21 24 15 4 2 5 5 2 1 4 5 4 3 7 11 8 7 8 4 2 7 10 6 5 6 7 7 6 5 3 3 6 3 3 2 4 3 1 4 7 7 4 3 4 3 4 4 6 3 2 2 3 3 0 3 6 3 1 3 5 9 7 6 11 12 10 10 11 12 13 15 16 13 14 16 21
31 37 39 35 34 33 32 27 18 22 24 22 23 18 6 2 6 9 8 4 2 2 3 4 4 8 12 8 5 5 3 2 7 6 4 5 5 8 7 5 5 3 2 5 3 1 3 5 1 1 3 9 10 6 3 1 4 6 5 6 5 2 1 3 3 2 4 5 3 0 2 3 6 4 9 15 15 14 13 17 20 20 21 22 19 17 18 21
30 36 42 40 37 36 34 27 20 24 26 26 23 13 5 7 8 10 13 9 2 2 2 4 6 8 10 7 5 7 4 3 7 6 3 6 5 6 6 6 7 2 3 4 3 5 5 5 5 7 4 11 13 8 7 6 5 6 4 5 5 5 4 4 4 4 4 4 4 1 2 3 2 3 7 10 13 15 15 16 19 21 22 21 19 18 19 23
30 33 41 44 42 39 36 31 25 26 31 29 18 8 9 9 7 10 13 8 2 3 3 3 8 8 7 2 2 7 5 3 6 5 4 6 6 8 7 9 11 7 5 4 2 3 4 6 6 3 2 11 12 6 7 8 3 3 2 4 3 5 5 3 3 5 3 2 3 2 4 4 4 6 8 9 13 15 15 15 16 19 18 16 16 17 20 24
29 32 40 46 48 44 41 37 29 30 35 28 12 7 10 10 9 8 7 7 6 5 5 3 4 5 6 3 2 5 2 1 5 4 3 4 4 7 8 7 12 12 9 7 3 2 2 5 5 2 1 5 6 4 5 4 4 2 3 4 4 4 5 2 2 1 3 3 4 3 5 5 3 7 8 7 10 12 12 15 18 20 17 14 15 17 20 24
26 32 41 49 51 47 43 41 33 35 38 23 9 9 9 11 14 9 6 7 8 10 8 3 3 5 7 4 3 7 3 2 5 5 4 3 3 7 8 5 8 16 14 7 2 3 4 3 4 1 2 3 0 4 4 3 4 5 4 6 2 2 2 2 2 2 2 4 5 3 6 5 2 6 5 3 5 10 10 10 14 17 16 16 18 17 19 23
24 29 39 47 49 48 46 41 36 41 38 16 8 12 9 12 19 15 9 7 8 11 9 7 6 6 8 7 5 8 7 4 6 6 4 4 5 8 11 5 8 18 20 10 2 3 4 2 4 1 3 3 3 4 2 4 2 4 4 5 4 2 1 2 2 3 2 4 5 2 4 5 6 6 4 3 6 9 10 8 9 11 13 17 20 18 19 22
23 24 32 43 48 49 47 43 42 43 27 8 7 12 10 14 23 21 13 7 6 9 10 10 9 5 7 9 7 8 10 9 9 7 5 5 6 7 14 11 8 16 22 15 5 2 3 3 4 2 0 1 2 2 4 1 2 4 3 2 2 2 4 4 3 3 3 2 4 3 4 4 7 7 7 11 11 9 10 9 8 10 11 15 19 19 21 23
24 17 21 36 44 48 49 48 45 33 15 8 10 11 11 15 21 24 23 15 9 9 10 11 11 8 7 9 8 8 9 8 9 9 6 7 7 5 11 13 5 8 18 17 8 2 2 3 4 2 2 1 2 4 8 10 6 3 4 4 3 1 2 1 1 2 4 3 2 3 6 6 4 4 8 11 10 9 9 8 8 11 11 11 15 17 21 23
25 13 15 27 30 40 52 43 29 18 10 9 11 11 14 15 12 17 28 28 16 8 8 8 10 9 7 9 8 7 8 6 8 8 5 7 9 6 10 16 11 9 10 9 8 5 3 3 4 2 1 4 5 5 6 9 8 6 7 8 9 7 4 2 3 2 3 3 4 3 8 9 4 4 6 8 8 7 7 6 9 14 12 9 11 14 18 22
21 10 12 20 19 33 47 27 10 14 10 10 19 17 11 10 8 10 21 27 19 9 6 4 7 9 7 7 8 6 7 7 8 8 6 9 12 8 12 22 23 20 15 8 10 9 4 3 3 3 4 5 6 4 2 4 3 3 3 5 6 7 7 6 6 4 3 2 2 3 5 9 3 4 6 6 6 6 7 8 12 17 14 11 12 11 14 19
19 13 12 14 18 34 36 13 7 12 7 13 26 21 9 6 7 10 14 19 16 11 9 4 4 8 7 6 7 8 8 7 9 12 8 9 12 10 15 26 25 20 13 5 5 6 4 3 3 2 2 3 4 5 3 1 2 1 1 3 6 9 9 6 4 4 4 5 4 3 6 7 2 1 3 5 7 9 10 10 13 17 16 12 12 11 11 15
21 20 15 13 25 36 25 7 8 11 8 13 17 15 14 10 6 9 11 15 15 10 10 8 4 6 6 3 6 9 11 8 8 13 11 6 7 8 17 29 26 15 11 9 9 11 7 4 4 3 1 3 3 3 2 1 1 3 4 5 8 11 8 2 1 3 3 9 10 6 10 8 2 4 3 4 7 9 11 11 10 13 13 10 10 10 10 13
17 15 15 19 34 40 25 14 12 9 11 15 11 13 17 12 12 17 13 13 16 11 8 11 9 6 3 3 5 7 12 13 9 9 10 7 3 2 13 28 27 18 16 16 17 18 11 5 7 8 7 8 8 7 7 4 3 3 4 8 10 12 11 7 3 3 7 9 10 10 12 5 1 5 5 5 6 7 10 9 8 9 10 9 10 11 12 14
12 7 7 14 29 34 28 24 17 6 8 14 10 11 16 12 14 23 19 12 16 17 11 8 8 8 4 5 7 7 11 15 10 5 6 9 4 0 8 21 25 21 14 11 16 15 4 3 12 15 14 16 14 8 7 10 8 8 10 13 14 14 15 10 6 8 8 4 7 15 16 8 6 6 6 7 8 7 8 7 9 11 11 10 12 13 14 14
10 7 6 7 13 17 16 17 13 5 6 11 7 6 16 17 11 14 18 14 16 19 14 6 6 9 9 10 12 11 11 12 9 5 7 9 4 2 3 10 16 17 9 6 14 12 2 4 14 17 19 20 14 7 11 15 15 17 16 16 17 16 15 13 14 15 7 5 11 17 11 11 17 12 10 10 8 7 7 9 13 14 12 12 13 14 15 15
9 6 11 14 9 5 7 11 11 8 9 11 6 2 10 17 14 10 13 15 17 17 12 8 11 14 16 17 14 11 10 9 10 11 10 7 3 1 1 1 6 10 6 5 10 8 2 7 12 13 17 18 9 6 12 15 15 16 18 19 19 18 18 20 23 20 11 10 19 14 11 16 23 15 12 13 12 12 13 14 17 16 15 15 15 16 17 17
11 6 8 14 10 6 13 19 14 10 11 10 6 4 7 13 17 13 9 9 12 14 12 11 17 21 21 19 14 12 12 11 11 13 10 6 5 4 3 2 4 7 6 5 6 4 3 6 9 11 14 17 10 7 10 13 11 11 16 19 19 20 23 25 25 23 17 17 22 13 8 17 20 11 11 13 17 20 17 16 18 17 18 19 18 18 20 21
12 7 5 9 9 7 12 16 11 8 10 8 5 6 8 11 16 15 12 11 9 11 15 18 21 21 20 18 15 15 15 15 15 15 10 8 6 6 6 5 4 6 6 5 4 4 6 6 5 6 9 14 11 7 8 11 11 11 13 14 17 21 23 23 22 19 16 18 22 14 11 18 14 7 7 9 12 14 12 13 17 18 19 19 18 21 23 24
16 13 9 6 5 5 7 7 6 7 7 6 6 6 6 10 15 13 12 16 16 11 13 20 24 18 15 17 17 18 20 21 20 16 15 16 15 13 10 8 8 10 9 8 5 5 6 4 2 5 7 12 12 10 9 7 6 8 10 15 21 20 18 18 17 16 15 18 19 14 14 19 11 5 5 7 10 10 10 14 17 18 19 20 21 24 26 27
19 18 16 8 3 6 7 4 6 8 7 7 9 10 7 9 12 9 7 12 18 20 18 19 21 16 11 14 20 26 31 29 22 17 17 21 19 12 7 5 7 10 10 9 7 6 7 6 4 6 8 11 10 11 9 6 3 7 13 21 23 17 14 15 15 17 19 18 15 14 18 20 8 5 5 7 7 8 12 18 21 20 20 22 23 26 27 28
Wind_Direction
204 204 205 206 207 209 212 214 217 217 213 206 201 197 198 199 199 201 201 199 195 192 193 199 207 217 226 228 222 229 241 255 267 274 280 264 233 238 242 234 215 194 193 194 184 179 178 177 187 164 126 89 67 72 71 57 69 85 94 90 126 172 191 181 178 192 172 198 199 184 182 166 171 180 171 168 172 173 172 190 192 199 215 207 198 197 194 197
208 208 208 208 209 211 215 218 220 218 212 204 201 200 202 203 205 205 203 200 196 195 200 205 213 221 229 229 227 238 251 268 277 278 267 245 244 245 228 201 183 174 176 192 196 204 208 195 180 144 112 98 69 70 81 50 60 83 102 96 182 200 200 198 192 195 184 192 184 177 189 183 182 179 173 186 194 174 171 191 190 198 202 196 197 196 196 200
209 210 210 211 212 215 218 221 221 217 211 204 203 203 205 208 208 208 204 200 198 201 205 211 219 226 232 232 233 241 264 282 279 269 244 237 241 207 175 166 158 159 165 179 196 212 223 212 182 139 103 101 78 80 71 45 56 76 95 93 228 213 214 244 206 197 209 205 170 169 194 196 195 180 179 200 195 193 212 203 194 204 206 200 198 194 197 204
211 212 213 215 216 217 219 220 218 214 210 208 207 207 209 210 208 207 203 200 201 205 209 215 224 232 238 235 235 247 287 300 238 188 216 203 177 157 146 144 139 134 138 146 186 200 212 199 176 153 110 106 70 80 49 33 51 69 107 145 212 181 167 222 193 198 212 193 170 168 178 198 199 186 192 184 160 240 238 223 220 226 221 211 203 198 200 206
213 214 215 217 217 217 217 215 212 211 211 210 211 211 211 209 208 206 203 203 205 208 213 219 228 236 240 234 239 241 312 7 160 141 126 148 146 145 138 133 127 111 103 111 188 185 183 169 150 129 97 101 47 64 32 35 82 77 59 213 174 153 147 184 169 175 182 172 168 165 166 195 194 197 210 190 183 236 240 237 236 239 239 227 215 207 205 208
210 212 213 214 213 212 212 210 208 207 209 211 213 213 211 210 208 206 206 207 208 213 217 222 232 238 240 235 241 229 199 48 161 134 125 151 147 144 139 135 121 75 60 94 216 209 183 161 149 124 70 65 34 74 75 29 92 102 318 235 165 175 207 176 167 160 166 171 176 180 193 201 189 214 229 210 220 237 246 255 246 240 237 231 221 215 214 213
205 207 209 210 209 209 210 210 208 206 207 208 210 212 211 209 209 209 210 211 214 218 222 229 236 240 243 238 240 244 248 241 188 161 148 159 156 153 151 156 168 3 18 116 252 235 191 155 129 108 78 77 78 106 74 25 76 110 153 194 168 206 235 183 174 171 177 188 198 200 208 208 199 215 233 224 234 243 250 260 253 241 228 221 219 215 216 216
207 208 209 209 209 209 209 210 208 208 207 206 206 208 208 208 210 213 213 216 221 222 227 233 238 242 245 240 244 258 255 234 198 184 169 169 166 166 176 215 278 319 311 165 283 233 175 135 122 108 90 93 136 148 70 47 42 75 152 197 159 202 225 188 184 190 199 213 216 212 211 217 213 216 241 236 238 241 245 252 250 237 221 215 214 214 215 216
210 212 212 211 211 209 208 208 208 209 209 207 207 207 208 209 212 216 218 222 224 226 230 234 240 243 244 241 241 260 250 219 196 187 177 182 182 188 221 253 269 273 245 261 279 248 199 128 118 112 136 137 128 108 69 75 324 66 144 164 150 177 210 198 208 215 222 230 219 215 224 230 218 227 260 245 237 238 237 238 237 228 220 214 212 215 218 223
208 210 214 214 214 214 211 210 211 211 212 211 211 211 211 212 215 219 221 225 227 229 231 235 240 240 243 240 226 242 234 198 187 186 183 191 198 215 234 242 247 243 246 248 256 263 214 138 115 104 126 138 121 83 47 69 141 131 116 106 180 221 243 225 227 230 232 237 229 221 237 246 210 204 255 239 228 229 227 225 225 223 221 219 218 220 226 233
210 209 212 214 218 219 217 217 217 216 216 216 216 217 218 219 221 222 224 227 229 230 232 236 240 239 241 233 214 217 209 190 187 187 189 197 201 207 207 209 219 204 212 201 217 258 213 163 143 124 150 147 125 61 40 87 114 101 66 315 293 311 290 251 234 232 224 237 241 224 245 267 180 200 244 237 224 223 222 220 220 221 222 223 226 230 234 237
220 216 213 215 220 222 222 222 222 222 221 220 221 221 222 224 227 229 229 230 231 232 234 236 239 238 238 235 229 227 207 192 192 191 194 200 201 197 199 218 229 205 189 169 187 233 222 209 209 236 201 159 148 58 74 107 95 59 59 324 303 344 322 254 237 229 205 218 233 195 271 276 199 225 239 230 217 216 217 219 220 221 223 226 231 236 238 239
229 226 222 218 220 223 224 225 226 227 226 225 226 224 223 225 228 231 232 233 234 235 236 236 238 237 236 240 239 233 218 205 200 197 198 202 204 205 218 236 229 211 198 187 189 201 211 219 219 193 153 150 152 118 119 90 61 32 59 40 318 353 329 262 236 207 186 205 190 152 263 271 237 239 234 216 211 208 210 216 220 221 224 228 231 237 239 240
234 233 232 227 224 224 224 225 227 229 230 231 230 229 228 227 229 231 232 234 235 236 236 235 235 233 234 242 245 235 223 214 206 203 204 207 210 215 228 233 219 209 204 203 201 205 210 209 205 180 151 138 134 131 93 28 36 0 5 18 11 353 282 290 88 157 162 212 182 150 233 265 264 258 237 221 213 208 213 216 219 222 224 228 231 235 239 240
237 237 236 235 233 230 228 227 227 228 230 232 233 234 234 232 234 234 234 235 235 235 233 231 231 229 239 247 246 235 223 217 210 207 209 212 216 224 230 223 213 209 206 208 208 206 206 203 194 157 131 129 126 115 31 2 17 27 342 302 341 185 262 309 262 171 163 198 176 156 229 267 276 280 247 221 210 210 219 221 221 224 225 228 231 233 237 238
239 240 239 240 239 238 236 233 232 231 230 232 235 236 236 236 236 236 236 235 234 233 228 228 228 224 240 254 244 235 225 220 214 211 212 214 219 225 227 222 215 208 206 210 213 212 213 205 170 126 133 137 120 90 47 7 342 1 88 243 272 191 267 321 285 200 192 133 175 198 243 271 284 306 237 206 206 211 218 225 225 227 229 229 232 234 235 235
240 239 240 241 242 243 243 242 242 240 238 237 237 238 238 237 236 236 234 230 229 225 219 221 226 229 247 252 243 237 230 222 217 213 213 215 219 222 222 219 212 209 210 214 218 215 210 188 151 138 105 90 100 95 68 309 287 310 348 240 242 204 214 297 310 259 200 140 203 227 242 251 262 321 211 199 206 211 218 229 230 229 231 231 232 234 235 234
241 240 240 240 242 244 245 248 248 249 250 246 242 240 237 236 235 232 227 222 213 205 216 211 190 232 250 238 233 234 232 223 215 212 212 212 214 218 214 210 211 210 205 207 208 188 180 153 126 124 35 37 99 114 152 228 212 199 193 209 250 238 217 246 286 255 162 157 224 210 242 255 262 275 252 221 211 214 223 232 234 234 233 232 233 234 236 236
241 241 241 240 242 243 245 248 248 252 254 252 248 237 231 230 228 226 219 210 195 180 213 206 192 177 247 231 226 228 229 215 208 208 208 206 206 206 198 196 203 193 172 166 187 167 155 104 87 111 174 216 197 170 196 208 170 165 175 166 195 228 251 233 251 246 176 174 230 215 232 249 258 262 252 238 219 219 230 236 237 238 235 233 233 236 236 236
244 243 242 242 242 242 244 245 247 250 251 253 245 225 214 197 186 222 213 209 211 210 218 213 207 208 219 253 219 218 215 203 203 203 200 200 198 190 181 181 178 174 165 158 179 163 148 152 172 198 210 206 202 197 195 164 135 129 134 158 195 212 267 248 251 277 185 171 242 226 228 246 252 258 259 245 222 222 233 238 239 237 235 234 234 236 236 236
248 247 244 244 243 243 244 244 246 246 245 247 233 213 202 188 179 221 210 218 229 225 226 231 220 218 225 256 219 209 202 192 196 198 195 194 188 179 177 171 151 166 209 143 126 109 139 186 221 220 216 204 201 199 174 128 131 117 132 189 247 214 256 254 247 289 169 167 260 250 241 255 252 256 262 244 206 224 232 231 237 237 234 235 235 236 235 234
251 250 249 247 244 243 243 243 245 243 241 238 225 217 213 207 209 217 209 235 247 237 232 232 230 225 224 229 221 206 196 183 191 196 191 184 182 184 177 161 149 173 167 116 103 97 174 227 236 227 194 134 172 192 181 172 158 128 128 158 257 242 272 281 281 315 132 176 264 284 265 259 254 255 257 238 219 234 239 236 240 240 233 233 234 233 232 231
254 252 252 251 248 245 243 242 241 240 239 234 226 221 218 218 216 218 228 272 272 250 236 232 233 230 222 220 216 202 197 191 190 192 188 182 184 189 176 161 164 144 135 164 160 165 200 242 243 217 158 135 160 158 150 157 173 186 164 159 237 244 259 277 290 328 11 214 265 296 284 270 258 256 254 244 237 240 247 247 248 245 239 238 238 235 233 230
254 250 254 258 254 248 244 242 235 235 238 233 230 223 217 219 217 221 234 264 286 256 242 238 234 231 226 222 217 205 203 207 199 191 189 185 179 181 184 174 148 129 177 197 186 196 217 238 236 174 164 170 160 121 139 160 239 236 200 189 220 232 217 228 292 330 338 330 349 337 298 275 241 239 246 249 243 242 249 249 249 249 245 243 241 238 236 234
248 247 255 260 259 252 244 238 228 230 234 231 230 218 209 212 212 218 225 266 289 257 248 239 230 234 229 221 216 206 206 219 216 202 194 192 184 170 180 182 159 175 203 195 192 229 242 235 127 126 159 169 158 165 175 174 211 268 227 203 215 223 225 241 334 1 354 325 342 20 306 280 244 233 247 265 263 244 247 245 245 248 247 240 237 236 235 234
239 241 248 254 261 249 229 227 227 229 232 234 229 206 198 199 183 181 152 31 288 235 206 211 214 227 218 210 202 189 208 233 219 209 199 198 195 179 161 173 168 202 188 167 192 245 240 213 130 123 151 161 172 207 210 178 170 263 244 207 213 213 225 248 214 71 289 261 293 52 247 278 281 231 233 240 244 253 252 244 244 248 246 240 237 237 234 232
236 236 239 244 253 240 220 219 226 226 226 235 224 192 185 175 154 155 122 21 279 191 151 181 188 190 197 197 187 176 203 201 193 207 200 196 198 192 186 176 155 202 163 134 230 252 186 183 126 115 131 148 178 214 215 173 153 236 250 182 187 193 209 220 180 191 236 260 315 45 110 278 283 260 223 209 219 259 263 255 252 248 245 241 239 237 234 233
237 234 236 239 246 247 233 222 225 222 218 233 211 184 171 156 150 139 116 334 256 153 148 177 171 175 180 182 182 177 136 146 156 200 195 192 196 196 212 200 171 185 172 151 221 259 156 179 182 160 147 169 195 213 186 158 158 246 223 131 148 165 179 166 146 186 297 3 299 238 126 256 275 278 26 191 209 250 260 256 258 254 248 245 243 239 236 235
237 230 231 238 243 249 241 226 226 219 208 216 189 175 161 151 148 109 97 226 206 126 147 164 158 165 157 164 181 176 136 143 137 180 183 188 194 192 223 202 176 164 189 196 219 251 123 193 194 170 170 200 203 226 170 162 182 200 132 93 79 79 81 88 116 125 55 318 246 200 162 233 269 239 109 90 217 236 254 255 257 263 261 255 250 245 238 234
239 233 227 229 229 228 228 226 224 207 183 174 169 167 158 150 140 107 168 225 207 142 132 155 167 165 152 153 182 179 137 136 102 150 166 182 188 186 104 164 157 127 201 278 249 252 321 74 181 177 192 184 140 69 144 164 155 134 108 65 50 35 36 49 49 80 55 278 236 192 183 192 269 268 166 198 219 219 238 256 268 273 268 259 256 248 239 234
242 240 227 221 226 223 221 223 218 196 176 162 163 165 159 148 117 164 196 249 337 164 123 147 175 156 157 158 174 182 138 90 134 146 151 153 173 179 120 141 128 102 275 287 279 310 324 25 215 211 185 138 105 71 33 87 131 121 87 83 75 351 8 21 356 50 191 260 245 201 188 186 234 258 223 245 263 241 225 236 261 272 272 266 258 249 240 235
242 246 233 222 228 229 225 228 218 191 178 164 165 168 159 147 216 215 206 56 346 197 155 173 189 159 166 166 175 178 145 137 168 161 154 146 170 190 189 186 166 132 253 239 237 330 273 235 269 305 188 162 124 86 40 33 112 120 98 115 115 322 357 349 313 70 226 255 287 234 166 204 240 253 260 261 263 251 231 232 243 254 268 273 269 259 244 233
240 246 239 225 227 230 230 235 217 187 181 169 165 166 154 180 198 210 211 184 208 213 133 141 155 154 158 164 189 172 131 175 178 170 168 154 175 208 222 222 179 151 202 192 181 197 254 292 296 103 236 192 166 155 167 192 176 165 146 146 153 156 193 268 263 263 260 268 306 272 167 249 274 271 247 247 256 262 255 252 254 257 264 271 273 266 249 234
237 244 242 229 228 232 232 234 214 188 180 168 160 161 188 209 201 208 215 213 220 24 72 116 127 151 163 172 196 166 152 220 177 159 166 151 170 214 229 236 212 154 100 149 174 181 217 286 202 180 203 185 184 187 166 136 158 184 155 143 160 160 173 210 213 227 257 286 304 280 191 206 221 254 239 243 268 279 271 261 261 263 265 270 270 260 244 232
240 247 243 231 227 229 229 227 213 189 176 165 159 177 194 197 207 215 217 215 205 33 22 79 110 144 191 239 252 184 173 220 175 152 169 172 189 203 197 210 203 171 134 176 214 165 203 270 235 219 162 168 182 187 128 107 137 221 116 121 183 182 170 194 200 181 179 294 291 226 224 218 211 264 268 262 272 275 271 267 263 263 266 268 261 249 238 229
239 243 238 228 223 223 221 218 205 185 177 168 165 201 196 199 209 208 202 190 182 132 93 80 94 141 202 224 258 218 199 110 155 154 199 204 224 209 202 213 195 184 180 176 179 148 169 277 283 346 32 177 185 166 136 142 176 165 136 174 200 167 151 178 267 101 103 273 268 195 245 290 307 280 278 271 271 272 272 267 261 260 261 259 252 243 236 230
234 236 228 220 219 219 216 212 199 182 179 178 192 205 196 212 217 209 193 177 163 143 134 176 185 164 192 202 211 207 194 92 159 175 197 196 248 214 207 236 194 192 199 181 180 200 166 257 293 96 187 261 26 111 81 49 124 127 181 198 154 78 99 119 259 330 55 262 270 205 240 277 282 273 305 353 290 278 270 263 263 261 252 246 246 241 237 232
233 235 227 224 223 220 215 211 197 183 184 187 205 208 208 223 222 214 201 174 143 151 174 208 196 171 186 195 198 188 178 174 179 189 185 185 244 208 183 206 200 197 204 194 212 241 156 232 297 68 187 285 28 114 84 8 67 121 176 179 125 130 200 125 180 229 200 251 279 275 258 249 205 223 268 267 260 267 271 275 275 262 242 239 243 238 233 231
233 233 230 231 227 220 218 212 194 185 191 202 196 205 215 226 227 219 200 175 157 172 196 211 202 193 190 185 177 174 186 189 173 178 188 189 232 204 178 190 202 197 198 189 190 229 150 201 269 337 294 323 21 166 182 206 17 46 84 143 105 141 177 165 169 173 164 231 280 307 300 253 219 206 202 220 232 238 254 270 272 263 250 243 244 239 233 231
229 233 241 236 226 221 217 204 191 186 196 211 199 206 212 220 229 220 206 200 190 189 207 213 204 201 197 188 178 174 192 196 175 182 203 190 208 230 187 184 175 178 186 187 194 185 132 202 238 318 337 183 193 210 188 179 175 152 154 174 189 132 103 153 205 130 131 167 223 279 285 268 244 208 191 209 224 219 227 245 265 275 273 257 251 246 240 236
223 232 253 239 228 217 205 193 187 192 199 204 205 215 218 220 228 213 209 213 216 211 213 218 212 202 189 190 196 183 181 187 183 191 217 200 207 239 195 179 160 141 156 182 207 199 171 190 184 170 217 207 227 244 204 192 189 182 189 191 185 170 137 157 236 197 137 183 181 193 269 269 236 189 198 210 216 213 217 226 260 278 282 275 265 255 248 243
222 237 248 236 228 205 194 189 196 196 192 206 205 206 212 217 212 196 206 216 225 238 232 220 218 207 188 190 199 181 167 179 187 192 217 214 210 220 193 179 167 156 153 176 205 194 149 117 147 186 215 220 242 267 230 206 181 144 200 201 176 175 171 174 215 208 157 216 172 129 269 275 244 177 200 220 233 241 244 238 256 276 287 288 276 261 251 247
222 245 243 225 213 197 189 191 221 197 205 218 208 208 208 203 194 185 196 209 217 231 228 223 213 208 207 188 177 177 180 188 193 197 212 220 219 221 190 177 168 160 159 176 198 172 120 125 180 227 316 311 306 320 343 42 111 122 231 177 168 198 198 184 202 182 167 208 172 136 254 265 304 223 218 260 280 276 265 251 256 276 289 290 278 264 250 245
220 237 237 211 199 195 188 190 208 203 220 219 214 217 220 227 211 184 187 198 204 214 222 234 239 214 216 162 150 182 191 194 208 207 210 215 220 218 186 178 172 166 179 191 175 165 168 184 176 167 297 318 326 304 280 254 162 208 222 196 197 205 191 160 73 117 204 216 177 184 243 239 277 311 297 291 291 283 269 254 250 271 287 292 283 271 251 240
216 232 238 218 201 195 195 204 204 204 212 214 220 216 215 231 225 212 211 203 204 206 212 227 222 200 201 162 164 191 195 204 219 207 210 225 231 214 187 185 182 183 197 196 175 168 175 184 173 182 216 226 224 223 210 185 165 204 212 198 205 204 186 187 199 184 229 216 171 200 239 233 318 296 285 278 278 279 267 247 234 259 280 287 286 279 258 241
200 207 236 221 209 206 208 209 205 203 209 214 222 210 210 222 220 218 220 211 211 212 212 224 201 183 194 188 194 208 206 216 223 187 198 217 217 316 190 192 194 198 206 196 172 164 156 195 191 196 209 218 226 220 154 132 154 203 209 195 201 205 197 196 209 213 219 181 185 222 231 242 261 243 238 250 243 249 261 248 241 253 265 272 277 279 269 251
199 189 184 190 213 222 222 215 209 196 190 204 215 206 210 217 217 214 213 212 216 214 216 228 187 188 200 197 208 218 209 216 224 206 209 206 199 334 189 191 205 209 214 195 173 161 105 216 207 211 218 224 229 198 148 148 175 200 202 197 202 202 194 197 215 218 186 140 234 233 211 237 251 227 212 236 235 237 250 244 244 249 254 263 268 269 266 255
223 205 198 196 202 215 218 219 213 196 187 194 204 214 212 217 220 207 202 213 218 211 211 218 209 211 208 202 211 219 205 210 218 219 222 200 150 56 104 180 224 210 204 193 180 166 150 217 214 217 228 236 230 163 165 174 185 197 198 199 202 197 192 202 217 218 184 192 240 232 170 221 246 233 215 226 227 231 236 237 244 250 254 259 261 258 258 254
237 256 228 210 205 195 207 214 209 199 198 191 192 210 205 212 220 216 204 210 218 211 206 214 217 218 216 210 210 212 206 206 213 217 213 184 166 165 170 223 228 193 172 177 193 181 180 223 219 206 223 237 224 169 181 190 188 199 204 203 200 197 199 206 216 217 205 218 241 237 203 237 246 230 218 223 225 234 239 239 242 246 249 252 251 251 253 251
230 240 235 220 225 213 205 207 197 192 204 192 188 212 207 210 217 217 210 204 207 205 204 217 224 219 216 213 211 217 217 210 216 217 187 163 189 191 185 196 175 161 170 187 210 193 186 219 216 177 214 238 223 188 192 196 195 205 210 211 209 204 204 209 216 217 212 228 241 243 254 258 245 199 201 205 205 218 224 223 228 233 240 241 242 248 251 251
236 232 231 236 239 209 192 186 169 185 205 193 191 199 201 217 218 215 218 217 217 214 203 216 227 225 217 215 213 222 225 218 221 218 188 185 203 201 199 198 164 161 182 191 191 188 192 209 149 141 210 234 216 194 189 181 193 216 222 221 215 207 204 208 214 212 205 220 235 238 248 252 240 148 163 182 181 194 203 210 218 225 231 233 239 247 250 252
243 238 237 240 238 207 202 180 168 192 198 184 194 199 199 222 221 214 232 233 228 230 223 219 227 229 219 215 214 221 228 228 230 232 214 209 211 199 183 185 166 169 181 183 183 185 186 196 186 173 212 235 216 185 166 143 174 226 232 226 215 201 198 205 213 216 208 209 219 222 234 244 231 137 185 205 188 200 212 214 219 224 228 232 240 247 251 253
Height
1527 1528 1529 1530 1531 1532 1533 1534 1535 1536 1536 1537 1538 1539 1539 1540 1541 1541 1542 1543 1543 1544 1545 1545 1546 1546 1546 1546 1546 1546 1545 1545 1545 1544 1544 1544 1544 1544 1544 1544 1545 1545 1545 1545 1545 1545 1545 1545 1545 1545 1544 1544 1544 1544 1544 1544 1544 1544 1549 1553 1555 1561 1559 1555 1558 1557 1555 1553 1553 1554 1555 1556 1556 1557 1557 1557 1558 1558 1558 1558 1558 1558 1558 1558 1558 1558 1558 1559
1527 1527 1528 1529 1530 1532 1533 1533 1534 1535 1536 1536 1537 1538 1539 1540 1540 1541 1542 1542 1543 1544 1545 1545 1545 1545 1546 1546 1546 1545 1545 1545 1544 1544 1543 1543 1544 1543 1544 1544 1544 1545 1545 1545 1545 1545 1545 1545 1545 1545 1544 1544 1544 1544 1544 1545 1544 1546 1552 1554 1555 1558 1555 1552 1554 1553 1553 1552 1552 1554 1555 1555 1556 1556 1557 1557 1558 1558 1558 1558 1558 1557 1557 1557 1557 1558 1558 1558
1526 1527 1528 1529 1530 1531 1532 1533 1534 1534 1535 1536 1537 1537 1538 1539 1540 1541 1541 1542 1543 1544 1544 1545 1545 1545 1545 1545 1545 1545 1545 1544 1543 1543 1543 1543 1543 1543 1543 1544 1544 1545 1545 1545 1545 1545 1545 1545 1545 1545 1545 1544 1545 1545 1545 1545 1545 1547 1550 1552 1554 1554 1553 1552 1552 1552 1552 1551 1552 1554 1554 1555 1556 1556 1557 1557 1557 1558 1557 1556 1556 1556 1556 1556 1556 1557 1557 1557
1525 1526 1527 1528 1529 1530 1531 1532 1533 1534 1535 1536 1536 1537 1538 1538 1539 1540 1541 1542 1543 1544 1544 1545 1545 1545 1545 1545 1545 1545 1544 1544 1543 1543 1543 1542 1542 1543 1543 1544 1545 1545 1545 1545 1545 1545 1545 1545 1545 1545 1545 1545 1545 1545 1545 1546 1546 1547 1549 1551 1552 1552 1552 1552 1551 1552 1552 1552 1552 1553 1555 1555 1555 1556 1556 1556 1557 1557 1554 1553 1554 1554 1554 1555 1555 1556 1556 1557
1524 1525 1526 1528 1528 1529 1530 1531 1532 1533 1534 1535 1536 1537 1537 1538 1539 1540 1540 1542 1542 1543 1544 1544 1544 1545 1545 1544 1544 1544 1544 1545 1543 1543 1543 1543 1543 1543 1544 1545 1545 1545 1545 1545 1545 1545 1545 1545 1545 1545 1545 1545 1546 1546 1546 1547 1546 1548 1550 1550 1550 1551 1552 1551 1551 1552 1551 1552 1553 1553 1554 1554 1554 1555 1555 1555 1555 1553 1552 1552 1552 1553 1554 1554 1554 1555 1555 1556
1523 1524 1525 1527 1528 1529 1529 1530 1531 1532 1533 1535 1535 1536 1537 1537 1538 1539 1540 1541 1542 1543 1543 1544 1544 1544 1544 1544 1544 1544 1545 1545 1544 1543 1544 1544 1544 1544 1545 1545 1546 1546 1546 1546 1546 1546 1545 1546 1545 1545 1545 1546 1547 1547 1547 1547 1547 1548 1551 1551 1551 1551 1551 1551 1552 1551 1552 1552 1552 1553 1553 1553 1554 1554 1553 1553 1551 1550 1550 1551 1551 1552 1553 1553 1554 1554 1554 1555
1522 1523 1525 1526 1527 1528 1529 1530 1531 1532 1533 1533 1534 1535 1536 1537 1538 1538 1539 1540 1541 1542 1543 1543 1543 1544 1544 1544 1544 1544 1544 1544 1543 1544 1544 1544 1545 1545 1545 1546 1546 1546 1546 1546 1546 1546 1546 1546 1546 1546 1546 1547 1548 1548 1548 1548 1547 1548 1550 1551 1551 1551 1551 1551 1552 1552 1552 1552 1552 1553 1553 1553 1553 1553 1553 1551 1549 1550 1550 1550 1550 1550 1551 1552 1552 1553 1553 1553
1521 1523 1524 1525 1526 1527 1528 1529 1530 1531 1532 1532 1533 1534 1535 1536 1537 1538 1539 1540 1541 1541 1542 1543 1543 1543 1543 1543 1543 1544 1543 1543 1543 1544 1544 1545 1545 1545 1546 1546 1546 1546 1546 1546 1546 1546 1546 1546 1546 1546 1547 1548 1548 1548 1548 1548 1548 1549 1550 1551 1551 1551 1551 1551 1551 1552 1552 1552 1553 1553 1552 1552 1552 1553 1551 1549 1549 1549 1549 1549 1549 1549 1549 1550 1551 1551 1552 1552
1521 1522 1523 1524 1525 1526 1527 1528 1529 1530 1531 1532 1533 1533 1534 1535 1536 1537 1538 1539 1540 1541 1541 1542 1542 1543 1543 1543 1543 1543 1542 1542 1543 1544 1544 1545 1545 1546 1546 1546 1546 1546 1546 1546 1546 1546 1546 1546 1546 1546 1547 1548 1548 1548 1548 1549 1549 1549 1550 1550 1551 1551 1550 1551 1551 1551 1552 1552 1552 1552 1552 1552 1552 1553 1549 1547 1548 1547 1548 1548 1548 1548 1548 1549 1550 1550 1551 1551
1520 1521 1522 1524 1525 1526 1527 1527 1528 1529 1530 1531 1532 1533 1534 1535 1535 1536 1537 1538 1539 1540 1541 1541 1542 1542 1542 1543 1544 1543 1541 1542 1543 1543 1544 1545 1545 1546 1545 1546 1545 1545 1545 1546 1546 1546 1546 1546 1547 1547 1547 1547 1548 1549 1549 1549 1550 1550 1550 1550 1550 1551 1551 1551 1550 1551 1551 1551 1551 1551 1552 1551 1552 1553 1547 1544 1546 1546 1546 1547 1547 1547 1548 1548 1548 1549 1550 1550
1519 1520 1521 1523 1524 1525 1526 1527 1528 1529 1530 1530 1532 1532 1533 1534 1535 1536 1536 1537 1538 1539 1540 1540 1541 1541 1542 1542 1543 1542 1541 1542 1542 1543 1544 1544 1545 1545 1545 1545 1545 1545 1545 1545 1546 1546 1546 1546 1547 1547 1547 1548 1548 1549 1549 1549 1550 1550 1550 1550 1550 1550 1550 1550 1550 1550 1550 1551 1550 1551 1551 1551 1553 1551 1544 1542 1545 1545 1545 1546 1546 1546 1546 1547 1547 1548 1548 1549
1518 1519 1520 1521 1522 1523 1525 1526 1527 1528 1529 1530 1531 1531 1533 1533 1534 1535 1536 1536 1537 1538 1539 1540 1540 1541 1541 1541 1541 1541 1541 1541 1542 1542 1543 1544 1544 1544 1545 1545 1545 1545 1545 1545 1546 1546 1546 1546 1547 1547 1547 1548 1549 1550 1550 1550 1551 1551 1551 1551 1551 1550 1549 1548 1548 1548 1549 1550 1549 1551 1552 1550 1549 1545 1540 1542 1543 1543 1545 1544 1545 1545 1545 1546 1546 1546 1547 1547
1518 1519 1519 1520 1521 1522 1523 1525 1526 1527 1528 1529 1530 1531 1532 1532 1533 1534 1535 1536 1536 1537 1538 1539 1539 1540 1541 1540 1539 1540 1541 1541 1541 1542 1542 1543 1543 1544 1544 1544 1545 1545 1545 1546 1545 1546 1546 1546 1547 1547 1548 1548 1549 1550 1550 1551 1551 1551 1553 1553 1553 1553 1550 1546 1547 1547 1548 1550 1548 1551 1553 1545 1541 1540 1539 1541 1542 1542 1543 1543 1543 1544 1544 1544 1544 1545 1545 1545
1517 1518 1519 1520 1520 1521 1522 1523 1524 1525 1527 1528 1529 1530 1530 1531 1532 1533 1534 1535 1535 1536 1537 1538 1539 1539 1540 1539 1538 1539 1539 1539 1540 1541 1541 1542 1542 1543 1544 1544 1544 1544 1545 1545 1545 1546 1546 1546 1547 1547 1548 1549 1549 1550 1551 1553 1552 1553 1554 1555 1559 1558 1550 1546 1547 1547 1547 1549 1547 1551 1554 1544 1536 1538 1539 1540 1540 1541 1541 1541 1542 1542 1542 1542 1542 1543 1543 1543
1516 1517 1518 1519 1520 1521 1521 1522 1523 1524 1525 1526 1527 1528 1529 1530 1531 1532 1533 1534 1534 1535 1536 1537 1538 1539 1539 1537 1536 1537 1537 1538 1539 1539 1540 1541 1541 1542 1543 1543 1544 1544 1544 1545 1545 1546 1546 1547 1547 1547 1549 1549 1549 1551 1553 1555 1554 1556 1556 1557 1563 1561 1552 1546 1546 1547 1546 1547 1547 1550 1553 1545 1536 1537 1538 1539 1539 1540 1540 1539 1540 1540 1540 1540 1540 1541 1541 1542
1514 1516 1517 1517 1519 1519 1520 1521 1522 1523 1524 1525 1526 1527 1528 1529 1530 1531 1532 1533 1534 1534 1535 1536 1537 1538 1538 1535 1534 1535 1535 1536 1537 1538 1539 1539 1540 1541 1542 1542 1543 1543 1544 1544 1545 1546 1546 1546 1547 1548 1549 1549 1551 1552 1555 1558 1558 1559 1559 1557 1560 1560 1556 1550 1545 1545 1546 1546 1548 1548 1549 1543 1537 1536 1536 1537 1539 1539 1539 1538 1538 1538 1538 1538 1538 1539 1539 1540
1512 1514 1515 1516 1517 1518 1519 1520 1521 1522 1523 1524 1525 1526 1527 1528 1529 1530 1531 1532 1533 1533 1535 1536 1536 1538 1536 1533 1533 1532 1532 1533 1535 1536 1537 1538 1540 1540 1541 1541 1542 1543 1543 1544 1545 1545 1546 1546 1548 1548 1549 1551 1552 1553 1558 1562 1559 1560 1562 1560 1559 1559 1558 1553 1545 1545 1546 1547 1547 1548 1547 1541 1535 1536 1536 1537 1538 1539 1538 1537 1536 1536 1536 1536 1537 1537 1537 1537
1511 1512 1513 1515 1515 1517 1518 1519 1520 1521 1522 1522 1523 1525 1526 1527 1527 1529 1530 1531 1532 1533 1535 1535 1536 1539 1534 1529 1530 1529 1530 1532 1533 1535 1536 1537 1538 1539 1540 1541 1541 1542 1543 1544 1544 1545 1546 1547 1548 1549 1551 1553 1552 1553 1557 1557 1552 1553 1558 1558 1557 1557 1558 1555 1548 1545 1546 1547 1547 1548 1548 1541 1535 1536 1537 1537 1538 1537 1535 1534 1534 1534 1534 1534 1535 1535 1534 1534
1509 1509 1511 1512 1513 1515 1516 1517 1519 1520 1521 1522 1523 1524 1525 1526 1527 1528 1529 1529 1530 1531 1532 1530 1530 1533 1529 1525 1526 1528 1529 1531 1532 1533 1535 1536 1537 1538 1539 1540 1541 1542 1543 1544 1544 1545 1546 1547 1549 1551 1552 1551 1550 1550 1549 1547 1547 1548 1552 1553 1552 1552 1553 1552 1549 1545 1545 1547 1547 1547 1545 1540 1536 1534 1535 1536 1536 1535 1534 1533 1533 1531 1531 1532 1532 1531 1531 1531
1507 1508 1509 1510 1511 1513 1514 1515 1517 1518 1519 1521 1522 1523 1524 1525 1526 1527 1527 1526 1525 1525 1525 1524 1524 1525 1525 1524 1525 1526 1528 1529 1530 1531 1533 1534 1536 1537 1539 1540 1541 1542 1542 1543 1545 1545 1546 1548 1550 1549 1547 1545 1546 1546 1545 1546 1549 1549 1551 1552 1552 1553 1551 1547 1546 1545 1545 1546 1544 1542 1542 1539 1535 1533 1532 1534 1535 1534 1533 1531 1529 1528 1528 1528 1528 1527 1527 1528
1505 1506 1507 1508 1509 1510 1512 1513 1515 1516 1517 1519 1521 1522 1522 1522 1524 1524 1523 1522 1522 1522 1522 1523 1523 1523 1523 1525 1524 1525 1527 1528 1529 1530 1532 1533 1535 1536 1538 1539 1540 1542 1543 1544 1545 1545 1547 1549 1548 1543 1541 1541 1544 1545 1546 1548 1549 1549 1551 1552 1554 1556 1551 1545 1545 1544 1545 1547 1542 1540 1541 1538 1535 1532 1531 1532 1533 1530 1527 1526 1524 1523 1524 1524 1523 1523 1523 1525
1504 1504 1505 1506 1507 1508 1509 1511 1512 1513 1515 1517 1519 1520 1521 1520 1521 1521 1521 1521 1519 1520 1521 1521 1522 1522 1523 1524 1524 1525 1525 1526 1528 1528 1530 1532 1533 1535 1536 1538 1539 1541 1543 1544 1545 1548 1550 1548 1543 1539 1541 1543 1545 1546 1547 1548 1549 1550 1552 1554 1554 1554 1550 1544 1544 1545 1545 1546 1541 1540 1540 1535 1532 1531 1529 1529 1527 1522 1520 1520 1518 1517 1518 1517 1517 1518 1520 1522
1502 1503 1504 1504 1505 1507 1507 1509 1511 1511 1512 1515 1517 1518 1520 1520 1520 1521 1522 1521 1518 1517 1517 1518 1518 1519 1520 1521 1522 1523 1523 1523 1525 1525 1528 1530 1531 1533 1534 1536 1538 1540 1543 1543 1543 1547 1549 1543 1537 1538 1542 1543 1545 1547 1549 1549 1551 1551 1552 1554 1553 1552 1551 1544 1543 1545 1545 1545 1542 1541 1540 1533 1530 1529 1525 1522 1519 1518 1518 1516 1513 1513 1512 1512 1513 1515 1516 1517
1500 1501 1503 1502 1504 1504 1505 1508 1508 1508 1510 1513 1515 1518 1519 1520 1520 1521 1522 1522 1518 1513 1513 1513 1514 1514 1515 1518 1520 1521 1521 1521 1521 1522 1525 1527 1529 1532 1532 1533 1537 1541 1542 1539 1539 1541 1539 1536 1535 1537 1540 1541 1544 1548 1549 1549 1551 1550 1550 1552 1549 1548 1548 1545 1544 1545 1544 1545 1544 1543 1538 1526 1522 1523 1519 1515 1516 1516 1514 1511 1510 1509 1508 1510 1511 1512 1512 1513
1498 1500 1500 1501 1502 1502 1504 1506 1505 1507 1509 1511 1514 1516 1519 1519 1520 1522 1522 1523 1518 1511 1510 1510 1510 1509 1510 1515 1516 1518 1520 1519 1519 1520 1522 1523 1525 1529 1531 1532 1535 1538 1539 1539 1540 1539 1535 1534 1535 1537 1540 1541 1543 1545 1546 1547 1549 1548 1546 1546 1544 1543 1544 1546 1548 1548 1546 1547 1546 1547 1541 1523 1514 1519 1517 1513 1516 1514 1509 1508 1506 1504 1504 1507 1507 1507 1509 1510
1496 1498 1499 1500 1500 1501 1503 1502 1502 1506 1507 1509 1512 1515 1518 1518 1521 1522 1522 1527 1521 1508 1506 1507 1505 1503 1504 1509 1512 1517 1522 1516 1515 1519 1519 1522 1523 1524 1529 1531 1532 1534 1536 1539 1541 1538 1534 1533 1534 1536 1539 1541 1542 1544 1544 1544 1548 1549 1543 1540 1542 1543 1545 1547 1548 1549 1550 1549 1548 1549 1549 1533 1514 1511 1513 1511 1513 1509 1505 1505 1502 1500 1502 1502 1502 1503 1505 1507
1494 1496 1497 1498 1498 1499 1500 1499 1501 1503 1505 1509 1510 1514 1517 1517 1521 1520 1522 1535 1522 1498 1498 1502 1500 1499 1499 1502 1506 1514 1518 1511 1511 1517 1517 1520 1522 1522 1526 1528 1529 1531 1532 1537 1539 1534 1530 1532 1535 1535 1538 1541 1543 1542 1540 1541 1547 1547 1541 1539 1541 1543 1545 1546 1547 1549 1549 1550 1551 1548 1551 1547 1522 1507 1509 1508 1508 1507 1501 1501 1499 1497 1498 1497 1499 1500 1502 1503
1491 1493 1495 1496 1496 1497 1497 1498 1499 1501 1504 1508 1508 1513 1515 1516 1521 1518 1526 1538 1513 1487 1492 1496 1495 1496 1497 1501 1503 1506 1508 1504 1508 1514 1514 1518 1521 1521 1523 1524 1525 1527 1528 1531 1533 1529 1527 1529 1532 1532 1535 1539 1538 1536 1535 1538 1542 1542 1541 1542 1542 1543 1545 1546 1546 1550 1553 1554 1553 1548 1551 1552 1526 1506 1511 1509 1508 1507 1499 1497 1496 1493 1495 1495 1497 1498 1499 1501
1488 1490 1492 1494 1495 1495 1496 1497 1498 1501 1505 1507 1508 1512 1514 1517 1519 1518 1531 1531 1498 1482 1490 1491 1493 1496 1496 1501 1503 1503 1504 1504 1506 1509 1512 1517 1518 1519 1521 1522 1524 1526 1526 1526 1526 1527 1527 1527 1528 1529 1531 1532 1532 1533 1534 1535 1537 1539 1542 1542 1544 1546 1547 1549 1548 1548 1555 1554 1549 1547 1549 1549 1523 1501 1509 1513 1509 1504 1496 1494 1494 1491 1493 1493 1494 1495 1496 1498
1485 1487 1489 1492 1492 1493 1493 1494 1496 1501 1504 1506 1508 1511 1513 1516 1517 1524 1537 1519 1488 1485 1490 1488 1492 1494 1495 1500 1504 1504 1504 1505 1505 1508 1513 1515 1517 1519 1520 1521 1524 1526 1527 1527 1526 1527 1527 1527 1528 1527 1528 1527 1529 1535 1536 1535 1536 1538 1541 1540 1543 1547 1546 1551 1551 1549 1555 1550 1540 1539 1540 1544 1529 1506 1505 1507 1502 1498 1493 1492 1491 1490 1491 1491 1491 1492 1493 1495
1482 1484 1486 1488 1487 1489 1490 1489 1493 1499 1502 1504 1507 1510 1513 1515 1517 1524 1525 1502 1484 1486 1488 1490 1493 1493 1493 1496 1500 1503 1504 1506 1506 1507 1511 1514 1517 1519 1520 1522 1524 1528 1531 1529 1528 1529 1527 1527 1527 1525 1525 1526 1529 1534 1536 1538 1538 1537 1538 1539 1544 1549 1549 1553 1554 1555 1558 1545 1534 1536 1538 1542 1532 1508 1502 1501 1495 1495 1493 1491 1490 1489 1489 1489 1489 1490 1490 1492
1479 1480 1483 1484 1484 1486 1486 1486 1492 1497 1500 1502 1506 1508 1510 1517 1520 1515 1504 1491 1485 1483 1481 1487 1490 1491 1494 1494 1496 1499 1501 1504 1506 1505 1508 1512 1515 1515 1514 1515 1518 1526 1531 1528 1529 1530 1527 1525 1525 1524 1524 1525 1527 1533 1538 1540 1539 1538 1538 1542 1548 1555 1557 1557 1558 1561 1558 1544 1538 1543 1543 1539 1522 1501 1499 1498 1491 1492 1492 1490 1490 1488 1488 1487 1488 1489 1489 1490
1476 1477 1479 1480 1480 1481 1482 1485 1491 1495 1498 1501 1505 1508 1510 1516 1513 1500 1490 1484 1480 1477 1477 1482 1485 1488 1492 1494 1496 1497 1499 1502 1503 1505 1506 1508 1513 1512 1510 1510 1511 1515 1518 1523 1530 1531 1527 1524 1525 1524 1523 1521 1521 1526 1533 1535 1537 1537 1536 1539 1547 1556 1564 1563 1562 1561 1552 1541 1541 1546 1543 1533 1513 1496 1493 1490 1485 1487 1488 1488 1487 1486 1486 1486 1486 1488 1487 1488
1473 1474 1475 1475 1477 1477 1479 1485 1489 1491 1495 1498 1503 1507 1510 1510 1499 1489 1483 1476 1473 1477 1479 1480 1484 1489 1490 1490 1492 1493 1497 1501 1501 1503 1505 1508 1513 1512 1510 1510 1510 1510 1513 1522 1527 1527 1526 1520 1516 1518 1516 1514 1514 1515 1518 1524 1532 1533 1530 1533 1537 1544 1551 1552 1550 1548 1543 1540 1543 1548 1540 1521 1504 1493 1488 1486 1485 1485 1484 1484 1484 1483 1483 1484 1484 1485 1485 1485
1470 1471 1472 1473 1473 1474 1476 1481 1485 1489 1491 1494 1499 1502 1502 1499 1490 1483 1477 1472 1474 1479 1480 1481 1485 1491 1492 1490 1491 1489 1491 1497 1500 1503 1505 1506 1506 1505 1504 1504 1505 1507 1511 1517 1520 1523 1525 1514 1507 1510 1509 1509 1511 1511 1514 1520 1530 1534 1532 1533 1533 1532 1532 1535 1542 1545 1545 1545 1542 1540 1529 1508 1497 1489 1485 1487 1484 1482 1482 1481 1481 1480 1480 1482 1481 1481 1482 1483
1467 1468 1469 1468 1468 1469 1472 1476 1481 1486 1488 1491 1495 1493 1489 1483 1476 1472 1468 1467 1472 1477 1482 1486 1487 1491 1493 1492 1493 1492 1490 1493 1499 1503 1504 1504 1501 1499 1497 1493 1495 1499 1499 1504 1511 1517 1520 1514 1509 1511 1510 1510 1511 1511 1513 1516 1522 1531 1534 1530 1528 1528 1526 1530 1543 1548 1549 1545 1532 1525 1516 1503 1498 1488 1481 1485 1482 1479 1480 1479 1477 1478 1478 1479 1479 1479 1480 1480
1463 1464 1464 1462 1462 1466 1469 1472 1476 1481 1484 1487 1487 1481 1477 1470 1463 1462 1462 1462 1467 1471 1477 1482 1483 1486 1490 1491 1492 1492 1490 1493 1498 1500 1501 1504 1498 1491 1492 1490 1490 1492 1490 1493 1501 1504 1506 1508 1511 1513 1511 1512 1513 1512 1514 1514 1516 1526 1530 1524 1524 1531 1529 1531 1541 1544 1547 1545 1526 1516 1512 1505 1503 1493 1480 1481 1480 1476 1476 1475 1475 1475 1475 1476 1476 1477 1479 1479
1460 1461 1459 1457 1459 1463 1467 1470 1472 1476 1477 1479 1480 1476 1472 1465 1457 1457 1459 1459 1463 1467 1469 1473 1475 1477 1481 1485 1487 1488 1489 1490 1495 1497 1497 1500 1491 1479 1483 1487 1486 1487 1487 1490 1496 1497 1500 1504 1510 1516 1514 1513 1514 1513 1516 1517 1516 1518 1519 1518 1522 1529 1531 1535 1540 1539 1542 1543 1526 1516 1513 1505 1499 1491 1479 1478 1477 1472 1471 1472 1473 1472 1472 1474 1474 1476 1477 1477
1458 1458 1453 1450 1455 1460 1464 1466 1469 1472 1471 1469 1473 1472 1466 1458 1452 1454 1458 1460 1461 1463 1464 1463 1466 1470 1474 1476 1478 1483 1485 1482 1488 1492 1490 1492 1485 1472 1473 1478 1479 1483 1486 1490 1493 1495 1498 1500 1507 1515 1516 1515 1514 1513 1515 1518 1519 1519 1519 1520 1521 1522 1525 1529 1532 1530 1533 1536 1527 1517 1508 1493 1485 1481 1474 1472 1471 1470 1470 1470 1469 1468 1469 1471 1472 1473 1475 1475
1455 1454 1446 1444 1450 1455 1459 1463 1464 1465 1463 1461 1463 1462 1456 1450 1448 1452 1457 1458 1456 1457 1457 1456 1458 1464 1468 1470 1471 1475 1478 1477 1481 1484 1480 1480 1478 1470 1469 1471 1475 1481 1485 1489 1491 1493 1497 1499 1503 1515 1519 1516 1511 1508 1507 1508 1512 1515 1518 1521 1522 1523 1526 1526 1526 1525 1527 1530 1531 1525 1505 1481 1474 1474 1468 1466 1467 1467 1469 1468 1467 1467 1467 1468 1470 1471 1472 1473
1452 1449 1442 1441 1447 1451 1456 1458 1455 1454 1454 1454 1454 1453 1449 1446 1446 1450 1454 1455 1454 1452 1452 1452 1454 1456 1460 1465 1466 1466 1471 1475 1477 1478 1475 1473 1470 1465 1463 1465 1470 1477 1485 1492 1492 1489 1494 1496 1500 1512 1517 1510 1504 1502 1502 1501 1501 1503 1506 1509 1510 1514 1520 1524 1525 1524 1522 1521 1523 1525 1505 1472 1464 1470 1466 1465 1465 1465 1468 1469 1467 1465 1465 1466 1467 1468 1470 1470
1448 1444 1439 1439 1443 1447 1451 1449 1445 1445 1446 1444 1442 1442 1442 1441 1444 1448 1450 1453 1454 1452 1451 1451 1450 1452 1454 1457 1460 1462 1466 1470 1473 1474 1469 1465 1461 1457 1458 1460 1464 1469 1476 1483 1483 1480 1486 1492 1497 1505 1508 1505 1503 1503 1504 1504 1501 1502 1503 1501 1503 1507 1509 1512 1516 1516 1520 1518 1515 1524 1513 1473 1458 1466 1466 1465 1466 1465 1468 1469 1466 1464 1463 1465 1465 1466 1468 1468
1442 1439 1437 1438 1438 1440 1444 1443 1441 1441 1438 1435 1434 1435 1437 1438 1441 1444 1447 1450 1451 1450 1450 1448 1446 1448 1448 1450 1455 1459 1461 1462 1465 1465 1461 1459 1457 1453 1455 1458 1460 1465 1469 1474 1476 1479 1485 1490 1493 1500 1503 1502 1503 1503 1504 1504 1503 1504 1504 1502 1503 1502 1499 1501 1504 1505 1512 1513 1511 1524 1513 1473 1459 1467 1465 1465 1467 1465 1466 1466 1464 1463 1462 1463 1464 1464 1467 1468
1437 1436 1436 1436 1435 1434 1435 1434 1435 1436 1435 1434 1434 1436 1437 1437 1438 1440 1442 1443 1444 1445 1447 1446 1444 1444 1445 1447 1450 1453 1455 1457 1458 1458 1455 1456 1454 1451 1453 1455 1457 1461 1463 1464 1468 1474 1481 1485 1489 1497 1502 1502 1504 1505 1504 1504 1505 1502 1500 1500 1497 1496 1499 1503 1503 1507 1508 1499 1501 1512 1497 1467 1462 1468 1464 1465 1467 1464 1463 1463 1462 1462 1461 1462 1462 1463 1465 1466
1434 1434 1434 1434 1433 1429 1426 1426 1428 1431 1433 1434 1434 1435 1436 1435 1434 1436 1437 1437 1439 1442 1443 1442 1441 1442 1444 1446 1447 1449 1449 1448 1448 1451 1453 1453 1451 1450 1452 1453 1454 1455 1455 1456 1457 1462 1469 1474 1478 1487 1493 1491 1488 1486 1485 1490 1499 1499 1494 1495 1495 1495 1499 1499 1501 1508 1502 1490 1494 1495 1477 1463 1464 1465 1462 1464 1465 1462 1460 1460 1460 1460 1460 1461 1461 1462 1463 1464
1430 1430 1430 1431 1429 1424 1421 1422 1425 1427 1430 1433 1433 1432 1433 1432 1430 1432 1435 1436 1437 1438 1438 1437 1438 1441 1443 1444 1445 1447 1446 1443 1443 1447 1450 1449 1449 1450 1451 1452 1453 1453 1454 1456 1457 1460 1464 1466 1464 1466 1466 1461 1457 1458 1463 1473 1487 1490 1486 1488 1491 1491 1493 1495 1498 1499 1490 1489 1491 1476 1462 1464 1464 1461 1462 1462 1461 1460 1458 1457 1458 1458 1459 1460 1460 1461 1461 1462
1424 1422 1422 1425 1425 1421 1419 1419 1421 1424 1427 1430 1430 1427 1427 1428 1428 1430 1433 1434 1433 1434 1435 1435 1437 1438 1439 1440 1441 1440 1441 1443 1444 1444 1446 1445 1446 1450 1451 1451 1452 1453 1454 1456 1457 1460 1464 1463 1459 1455 1451 1444 1443 1451 1459 1463 1471 1475 1477 1481 1484 1485 1491 1494 1491 1481 1479 1489 1482 1459 1461 1469 1459 1454 1460 1458 1457 1458 1456 1455 1456 1456 1458 1459 1459 1460 1460 1460
1419 1415 1414 1416 1417 1416 1415 1415 1417 1420 1422 1426 1427 1425 1425 1426 1426 1428 1429 1429 1430 1431 1433 1434 1433 1432 1430 1430 1433 1435 1438 1442 1444 1442 1441 1443 1446 1451 1452 1453 1453 1453 1454 1457 1456 1458 1460 1457 1454 1454 1452 1446 1446 1454 1458 1457 1460 1463 1467 1472 1475 1480 1486 1485 1478 1471 1473 1478 1463 1450 1462 1464 1447 1447 1455 1453 1453 1453 1451 1454 1455 1455 1457 1457 1457 1459 1458 1459
1416 1413 1412 1413 1412 1410 1410 1410 1413 1416 1419 1422 1425 1425 1425 1425 1424 1423 1424 1427 1428 1428 1429 1430 1426 1423 1423 1424 1427 1431 1432 1436 1438 1436 1435 1439 1444 1448 1449 1450 1450 1451 1453 1455 1455 1456 1457 1453 1449 1452 1453 1449 1449 1455 1457 1456 1458 1460 1461 1463 1466 1471 1473 1470 1467 1465 1468 1466 1454 1452 1463 1454 1438 1442 1448 1447 1448 1448 1449 1452 1453 1453 1455 1455 1456 1457 1456 1457
1414 1412 1411 1411 1410 1408 1408 1408 1410 1414 1416 1420 1422 1421 1422 1422 1420 1419 1419 1421 1423 1423 1424 1423 1418 1417 1420 1422 1424 1425 1423 1423 1425 1426 1429 1435 1440 1442 1442 1440 1442 1449 1453 1453 1453 1454 1454 1451 1449 1452 1455 1451 1450 1455 1458 1457 1457 1457 1459 1460 1460 1461 1463 1464 1462 1463 1468 1465 1455 1460 1465 1447 1431 1437 1443 1443 1445 1446 1448 1450 1449 1451 1453 1453 1454 1454 1454 1454
1411 1411 1410 1410 1408 1407 1407 1406 1407 1410 1412 1415 1417 1417 1419 1418 1415 1414 1414 1413 1415 1417 1418 1417 1415 1415 1418 1421 1422 1420 1416 1414 1415 1417 1421 1426 1428 1429 1430 1429 1431 1440 1447 1448 1448 1449 1451 1451 1451 1454 1455 1449 1445 1451 1458 1459 1459 1460 1459 1455 1451 1452 1455 1458 1458 1457 1462 1461 1460 1467 1462 1438 1427 1436 1441 1441 1443 1445 1445 1446 1447 1449 1449 1450 1451 1451 1451 1451
1409 1409 1408 1409 1407 1404 1404 1404 1405 1405 1405 1407 1409 1411 1413 1413 1412 1415 1416 1412 1411 1412 1414 1413 1413 1415 1417 1418 1416 1412 1409 1410 1413 1417 1419 1420 1420 1422 1424 1425 1425 1429 1435 1439 1440 1442 1445 1446 1447 1450 1450 1443 1441 1447 1456 1461 1464 1460 1447 1433 1433 1443 1449 1451 1452 1450 1450 1452 1455 1456 1442 1424 1427 1438 1438 1439 1442 1442 1442 1442 1444 1445 1446 1448 1448 1448 1448 1448